Content
SEND FEEDBACK

Daily
Averages
Monthly
Summary
Canada

QUEBEC CITY, QUEBEC


Home > North America > Canada > Quebec
Elevation: 239 feet     Latitude: 46 48N     Longitude: 071 23W

WEATHER
 
SELECT A DAY
Number of Records: 195,749;   Date Range: 6/30/96 - 10/19/14
 
SHARE

PRINT THIS DATA

[ ← Previous Day ]
WEATHER ALMANAC - FEBRUARY 25, 2014
[ Next Day → ]
[ °C ]   °F
We're sorry. There is no daily almanac available for Quebec City, Quebec on February 25, 2014.
WEATHER BY HOUR - FEBRUARY 25, 2014
[ °C ]   °F
Local TimeTemperatureDewpointHumidityBarometerVisibilityWind DirectionWind SpeedGust SpeedPrecipitationEventsConditions
1:00 AM7.0 °F-3.0 °F50 %29.85 inWest (280°)10.4 mph
1:00 AM6.8 °F-4.0 °F61 %29.84 in15.0 miWest (260°)9.2 mphScattered Clouds
2:00 AM5.0 °F-4.0 °F66 %29.86 in15.0 miWest (260°)10.4 mphPartly Cloudy
3:00 AM3.2 °F-4.0 °F72 %29.86 in15.0 miWest (260°)12.7 mphPartly Cloudy
4:00 AM3.0 °F-4.0 °F59 %29.88 inWest (270°)12.7 mph
4:00 AM3.2 °F-5.8 °F66 %29.88 in15.0 miWest (260°)12.7 mphClear
5:00 AM1.4 °F-7.6 °F66 %29.89 in15.0 miWest (260°)11.5 mphPartly Cloudy
6:00 AM-0.4 °F-7.6 °F72 %29.90 in30.0 miWSW (250°)12.7 mphPartly Cloudy
7:00 AM1.4 °F-7.6 °F66 %29.90 in30.0 miWSW (250°)11.5 mphPartly Cloudy
7:00 AM0.0 °F-7.0 °F60 %29.91 inWest (260°)9.2 mph
8:00 AM1.4 °F-7.6 °F66 %29.91 in30.0 miWSW (250°)12.7 mphPartly Cloudy
9:00 AM5.0 °F-5.8 °F61 %29.90 in30.0 miWest (260°)11.5 mphPartly Cloudy
10:00 AM7.0 °F-5.0 °F42 %29.89 inWSW (250°)9.2 mph
10:00 AM6.8 °F-5.8 °F56 %29.88 in30.0 miWSW (240°)13.8 mphPartly Cloudy
11:00 AM8.6 °F-4.0 °F57 %29.88 in30.0 miSW (230°)15.0 mphScattered Clouds
12:00 PM10.4 °F-4.0 °F52 %29.86 in30.0 miWSW (240°)16.1 mphScattered Clouds
1:00 PM12.2 °F-2.2 °F53 %29.84 in30.0 miSW (230°)18.4 mphMostly Cloudy
1:00 PM12.0 °F-4.0 °F33 %29.84 inWSW (240°)10.4 mph
2:00 PM10.4 °F-2.2 °F57 %29.83 in30.0 miSW (220°)19.6 mph28.8 mphMostly Cloudy
3:00 PM12.2 °F-2.2 °F53 %29.83 in30.0 miSW (220°)19.6 mphMostly Cloudy
4:00 PM12.0 °F-1.0 °F42 %29.83 inSW (230°)10.4 mph
4:00 PM12.2 °F-0.4 °F57 %29.83 in30.0 miSW (220°)20.7 mph26.5 mphMostly Cloudy
5:00 PM10.4 °F-0.4 °F62 %29.83 in30.0 miSW (230°)16.1 mph21.9 mphMostly Cloudy
6:00 PM10.4 °F-0.4 °F62 %29.85 in15.0 miWSW (240°)12.7 mphMostly Cloudy
7:00 PM10.0 °F3.0 °F61 %29.86 inWSW (240°)6.9 mph
7:00 PM8.6 °F1.4 °F73 %29.86 in10.0 miWSW (240°)9.2 mphOvercast
7:09 PM8.6 °F1.4 °F73 %29.86 in6.0 miWSW (240°)9.2 mphSnowLight Snow Showers
7:43 PM8.6 °F3.2 °F79 %29.86 in3.0 miWSW (250°)9.2 mphSnowLight Snow Showers
8:00 PM8.6 °F3.2 °F79 %29.86 in1.0 miWSW (250°)8.1 mphSnowLight Snow Showers
8:26 PM8.6 °F3.2 °F79 %29.86 in3.0 miWSW (250°)8.1 mphSnowLight Snow Showers
9:00 PM6.8 °F1.4 °F79 %29.86 in6.0 miSW (230°)8.1 mphSnowLight Snow Showers
9:17 PM5.0 °F1.4 °F85 %29.85 in15.0 miSW (230°)8.1 mphPartly Cloudy
10:00 PM8.0 °F4.0 °F77 %29.85 inWSW (240°)6.9 mph
10:00 PM5.0 °F1.4 °F85 %29.85 in15.0 miWSW (240°)9.2 mphPartly Cloudy
11:00 PM3.2 °F-2.2 °F78 %29.84 in15.0 miSW (230°)9.2 mphClear
Hourly data recorded from CYQB, located miles away from Quebec City, Quebec







STORIES FROM OUR PARTNERS